Time,TemperatureF,DewpointF,PressureIn,WindDirection,WindDirectionDegrees,WindSpeedMPH,WindSpeedGustMPH,Humidity,HourlyPrecipIn,Conditions,Clouds,dailyrainin,SoftwareType,DateUTC
2013-07-30 00:00:00,66.9,58.7,30.17,East,96,2.0,2.0,75,0.00,,,0.00,Wunderground v.1.15,2013-07-30 05:00:00,
2013-07-30 00:05:00,66.9,58.7,30.17,East,97,2.0,2.0,75,0.00,,,0.00,Wunderground v.1.15,2013-07-30 05:05:00,
2013-07-30 00:10:00,66.9,58.7,30.17,East,91,2.0,2.0,75,0.00,,,0.00,Wunderground v.1.15,2013-07-30 05:10:00,
2013-07-30 00:15:00,66.9,58.7,30.17,East,94,2.0,2.0,75,0.00,,,0.00,Wunderground v.1.15,2013-07-30 05:15:00,
2013-07-30 00:20:00,66.8,59.0,30.17,ESE,108,2.0,2.0,76,0.00,,,0.00,Wunderground v.1.15,2013-07-30 05:20:00,
2013-07-30 00:25:00,66.7,58.5,30.17,East,92,1.0,2.0,75,0.00,,,0.00,Wunderground v.1.15,2013-07-30 05:25:00,
2013-07-30 00:30:00,66.6,59.2,30.17,East,86,1.0,2.0,77,0.00,,,0.00,Wunderground v.1.15,2013-07-30 05:30:00,
2013-07-30 00:35:00,66.6,58.8,30.17,East,89,1.0,2.0,76,0.00,,,0.00,Wunderground v.1.15,2013-07-30 05:35:00,
2013-07-30 00:40:00,66.7,58.5,30.17,East,94,1.0,1.0,75,0.00,,,0.00,Wunderground v.1.15,2013-07-30 05:40:00,
2013-07-30 00:45:00,66.8,58.6,30.17,East,96,1.0,2.0,75,0.00,,,0.00,Wunderground v.1.15,2013-07-30 05:45:00,
2013-07-30 00:50:00,66.9,58.7,30.17,East,93,2.0,2.0,75,0.00,,,0.00,Wunderground v.1.15,2013-07-30 05:50:00,
2013-07-30 00:55:00,66.9,58.3,30.17,East,93,2.0,2.0,74,0.00,,,0.00,Wunderground v.1.15,2013-07-30 05:55:00,
2013-07-30 01:00:00,66.9,58.7,30.17,East,97,2.0,2.0,75,0.00,,,0.00,Wunderground v.1.15,2013-07-30 06:00:00,
2013-07-30 01:05:00,66.7,58.9,30.17,ESE,105,1.0,2.0,76,0.00,,,0.00,Wunderground v.1.15,2013-07-30 06:05:00,
2013-07-30 01:10:00,66.4,59.0,30.17,ESE,104,1.0,1.0,77,0.00,,,0.00,Wunderground v.1.15,2013-07-30 06:10:00,
2013-07-30 01:15:00,66.3,58.9,30.17,ESE,105,1.0,1.0,77,0.00,,,0.00,Wunderground v.1.15,2013-07-30 06:15:00,
2013-07-30 01:20:00,66.2,58.4,30.17,ESE,105,1.0,1.0,76,0.00,,,0.00,Wunderground v.1.15,2013-07-30 06:20:00,
2013-07-30 01:25:00,66.1,58.7,30.16,ESE,104,1.0,1.0,77,0.00,,,0.00,Wunderground v.1.15,2013-07-30 06:25:00,
2013-07-30 01:30:00,66.0,58.6,30.16,ESE,105,1.0,1.0,77,0.00,,,0.00,Wunderground v.1.15,2013-07-30 06:30:00,
2013-07-30 01:35:00,66.0,58.6,30.16,ESE,103,1.0,2.0,77,0.00,,,0.00,Wunderground v.1.15,2013-07-30 06:35:00,
2013-07-30 01:45:00,66.0,58.6,30.16,East,99,1.0,2.0,77,0.00,,,0.00,Wunderground v.1.15,2013-07-30 06:45:00,
2013-07-30 01:50:00,66.0,58.2,30.16,East,98,2.0,2.0,76,0.00,,,0.00,Wunderground v.1.15,2013-07-30 06:50:00,
2013-07-30 01:55:00,66.0,58.2,30.15,East,101,2.0,2.0,76,0.00,,,0.00,Wunderground v.1.15,2013-07-30 06:55:00,
2013-07-30 02:00:00,65.9,58.5,30.15,East,101,2.0,2.0,77,0.00,,,0.00,Wunderground v.1.15,2013-07-30 07:00:00,
2013-07-30 02:05:00,65.8,58.4,30.15,East,100,2.0,2.0,77,0.00,,,0.00,Wunderground v.1.15,2013-07-30 07:05:00,
2013-07-30 02:10:00,65.8,58.0,30.15,East,91,2.0,2.0,76,0.00,,,0.00,Wunderground v.1.15,2013-07-30 07:10:00,
2013-07-30 02:15:00,65.9,58.1,30.15,East,92,2.0,2.0,76,0.00,,,0.00,Wunderground v.1.15,2013-07-30 07:15:00,
2013-07-30 02:20:00,66.0,58.2,30.16,East,100,2.0,2.0,76,0.00,,,0.00,Wunderground v.1.15,2013-07-30 07:20:00,
2013-07-30 02:25:00,65.8,58.4,30.16,ESE,107,2.0,2.0,77,0.00,,,0.00,Wunderground v.1.15,2013-07-30 07:25:00,
2013-07-30 02:30:00,65.6,58.6,30.16,ESE,110,1.0,1.0,78,0.00,,,0.00,Wunderground v.1.15,2013-07-30 07:30:00,
2013-07-30 02:35:00,65.5,58.5,30.15,ESE,112,1.0,1.0,78,0.00,,,0.00,Wunderground v.1.15,2013-07-30 07:35:00,
2013-07-30 02:40:00,65.4,58.4,30.15,ESE,114,2.0,2.0,78,0.00,,,0.00,Wunderground v.1.15,2013-07-30 07:40:00,
2013-07-30 02:45:00,65.4,58.4,30.15,ESE,116,2.0,2.0,78,0.00,,,0.00,Wunderground v.1.15,2013-07-30 07:45:00,
2013-07-30 02:50:00,65.4,58.4,30.15,ESE,113,2.0,2.0,78,0.00,,,0.00,Wunderground v.1.15,2013-07-30 07:50:00,
2013-07-30 02:55:00,65.4,58.4,30.15,ESE,107,2.0,2.0,78,0.00,,,0.00,Wunderground v.1.15,2013-07-30 07:55:00,
2013-07-30 03:00:00,65.4,58.4,30.15,ESE,112,2.0,2.0,78,0.00,,,0.00,Wunderground v.1.15,2013-07-30 08:00:00,
2013-07-30 03:05:00,65.3,58.3,30.15,ESE,110,2.0,2.0,78,0.00,,,0.00,Wunderground v.1.15,2013-07-30 08:05:00,
2013-07-30 03:10:00,65.1,58.1,30.15,ESE,115,2.0,2.0,78,0.00,,,0.00,Wunderground v.1.15,2013-07-30 08:10:00,
2013-07-30 03:15:00,65.1,58.4,30.15,ESE,116,2.0,2.0,79,0.00,,,0.00,Wunderground v.1.15,2013-07-30 08:15:00,
2013-07-30 03:20:00,65.2,58.2,30.16,ESE,120,1.0,1.0,78,0.00,,,0.00,Wunderground v.1.15,2013-07-30 08:20:00,
2013-07-30 03:25:00,65.2,58.2,30.16,ESE,117,1.0,1.0,78,0.00,,,0.00,Wunderground v.1.15,2013-07-30 08:25:00,
2013-07-30 03:30:00,65.3,58.3,30.15,SE,124,1.0,1.0,78,0.00,,,0.00,Wunderground v.1.15,2013-07-30 08:30:00,
2013-07-30 03:35:00,65.5,58.5,30.15,ESE,114,1.0,2.0,78,0.00,,,0.00,Wunderground v.1.15,2013-07-30 08:35:00,
2013-07-30 03:40:00,65.6,58.2,30.15,ESE,116,2.0,2.0,77,0.00,,,0.00,Wunderground v.1.15,2013-07-30 08:40:00,
2013-07-30 03:45:00,65.7,58.3,30.15,ESE,113,2.0,2.0,77,0.00,,,0.00,Wunderground v.1.15,2013-07-30 08:45:00,
2013-07-30 03:50:00,65.8,58.4,30.15,ESE,120,2.0,2.0,77,0.00,,,0.00,Wunderground v.1.15,2013-07-30 08:50:00,
2013-07-30 03:55:00,66.0,58.6,30.15,SE,127,2.0,2.0,77,0.00,,,0.00,Wunderground v.1.15,2013-07-30 08:55:00,
2013-07-30 04:00:00,66.1,58.7,30.15,SE,132,2.0,2.0,77,0.00,,,0.00,Wunderground v.1.15,2013-07-30 09:00:00,
2013-07-30 04:05:00,66.2,58.8,30.16,SE,134,2.0,2.0,77,0.00,,,0.00,Wunderground v.1.15,2013-07-30 09:05:00,
2013-07-30 04:10:00,66.3,58.9,30.15,SE,136,1.0,2.0,77,0.00,,,0.00,Wunderground v.1.15,2013-07-30 09:10:00,
2013-07-30 04:15:00,66.4,59.3,30.15,SE,127,2.0,2.0,78,0.00,,,0.00,Wunderground v.1.15,2013-07-30 09:15:00,
2013-07-30 04:20:00,66.5,59.4,30.15,SE,144,2.0,2.0,78,0.00,,,0.00,Wunderground v.1.15,2013-07-30 09:20:00,
2013-07-30 04:25:00,66.4,60.0,30.15,SE,138,2.0,2.0,80,0.00,,,0.00,Wunderground v.1.15,2013-07-30 09:25:00,
2013-07-30 04:30:00,66.0,60.3,30.15,SE,136,2.0,3.0,82,0.00,,,0.00,Wunderground v.1.15,2013-07-30 09:30:00,
2013-07-30 04:35:00,65.6,60.3,30.15,SE,129,3.0,3.0,83,0.00,,,0.00,Wunderground v.1.15,2013-07-30 09:35:00,
2013-07-30 04:40:00,65.2,60.6,30.15,SE,131,3.0,3.0,85,0.00,,,0.00,Wunderground v.1.15,2013-07-30 09:40:00,
2013-07-30 04:45:00,64.9,60.6,30.15,ESE,122,3.0,3.0,86,0.00,,,0.00,Wunderground v.1.15,2013-07-30 09:45:00,
2013-07-30 04:50:00,64.7,60.7,30.15,SE,127,2.0,2.0,87,0.00,,,0.00,Wunderground v.1.15,2013-07-30 09:50:00,
2013-07-30 04:55:00,64.5,60.9,30.15,ESE,117,2.0,2.0,88,0.00,,,0.00,Wunderground v.1.15,2013-07-30 09:55:00,
2013-07-30 05:00:00,64.4,61.1,30.15,SE,130,1.0,2.0,89,0.00,,,0.00,Wunderground v.1.15,2013-07-30 10:00:00,
2013-07-30 05:05:00,64.4,61.1,30.14,ESE,111,2.0,2.0,89,0.00,,,0.00,Wunderground v.1.15,2013-07-30 10:05:00,
2013-07-30 05:10:00,64.5,61.2,30.14,SE,130,2.0,2.0,89,0.00,,,0.00,Wunderground v.1.15,2013-07-30 10:10:00,
2013-07-30 05:15:00,64.5,61.2,30.14,ESE,117,2.0,3.0,89,0.00,,,0.00,Wunderground v.1.15,2013-07-30 10:15:00,
2013-07-30 05:20:00,64.4,61.1,30.14,East,89,3.0,3.0,89,0.00,,,0.00,Wunderground v.1.15,2013-07-30 10:20:00,
2013-07-30 05:25:00,64.4,61.4,30.14,ESE,113,3.0,3.0,90,0.00,,,0.00,Wunderground v.1.15,2013-07-30 10:25:00,
2013-07-30 05:30:00,64.3,61.3,30.15,SE,127,2.0,2.0,90,0.00,,,0.00,Wunderground v.1.15,2013-07-30 10:30:00,
2013-07-30 05:35:00,64.2,61.2,30.15,SSE,150,1.0,2.0,90,0.00,,,0.00,Wunderground v.1.15,2013-07-30 10:35:00,
2013-07-30 05:40:00,64.2,61.2,30.15,SSE,154,1.0,1.0,90,0.00,,,0.00,Wunderground v.1.15,2013-07-30 10:40:00,
2013-07-30 05:45:00,64.1,61.4,30.16,SSW,206,1.0,1.0,91,0.00,,,0.00,Wunderground v.1.15,2013-07-30 10:45:00,
2013-07-30 05:50:00,64.1,61.4,30.17,SW,221,2.0,2.0,91,0.00,,,0.00,Wunderground v.1.15,2013-07-30 10:50:00,
2013-07-30 05:55:00,64.1,61.4,30.16,SW,218,2.0,2.0,91,0.00,,,0.00,Wunderground v.1.15,2013-07-30 10:55:00,
2013-07-30 06:00:00,64.1,61.4,30.16,SW,218,1.0,1.0,91,0.00,,,0.00,Wunderground v.1.15,2013-07-30 11:00:00,
2013-07-30 06:05:00,64.2,61.8,30.16,SW,218,0.0,1.0,92,0.00,,,0.01,Wunderground v.1.15,2013-07-30 11:05:00,
2013-07-30 06:10:00,64.2,61.8,30.15,NNE,21,0.0,0.0,92,0.20,,,0.03,Wunderground v.1.15,2013-07-30 11:10:00,
2013-07-30 06:15:00,64.1,62.0,30.15,ENE,58,1.0,2.0,93,0.22,,,0.06,Wunderground v.1.15,2013-07-30 11:15:00,
2013-07-30 06:20:00,63.9,61.8,30.15,ENE,67,2.0,2.0,93,0.17,,,0.07,Wunderground v.1.15,2013-07-30 11:20:00,
2013-07-30 06:25:00,63.6,61.5,30.15,ENE,67,2.0,2.0,93,0.13,,,0.08,Wunderground v.1.15,2013-07-30 11:25:00,
2013-07-30 06:30:00,63.5,61.7,30.15,NE,46,2.0,2.0,94,0.24,,,0.11,Wunderground v.1.15,2013-07-30 11:30:00,
2013-07-30 06:35:00,63.4,61.6,30.15,ENE,63,2.0,2.0,94,0.24,,,0.13,Wunderground v.1.15,2013-07-30 11:35:00,
2013-07-30 06:40:00,63.3,61.5,30.15,ENE,59,2.0,3.0,94,0.19,,,0.15,Wunderground v.1.15,2013-07-30 11:40:00,
2013-07-30 06:45:00,63.2,61.7,30.15,ENE,63,3.0,3.0,95,0.12,,,0.16,Wunderground v.1.15,2013-07-30 11:45:00,
2013-07-30 06:50:00,63.1,61.6,30.15,NE,54,3.0,3.0,95,0.09,,,0.17,Wunderground v.1.15,2013-07-30 11:50:00,
2013-07-30 06:55:00,63.1,61.6,30.15,ENE,58,3.0,3.0,95,0.09,,,0.17,Wunderground v.1.15,2013-07-30 11:55:00,
2013-07-30 07:00:00,63.0,61.5,30.16,ENE,68,2.0,2.0,95,0.05,,,0.17,Wunderground v.1.15,2013-07-30 12:00:00,
2013-07-30 07:10:00,63.0,61.5,30.15,ENE,62,2.0,3.0,95,0.05,,,0.18,Wunderground v.1.15,2013-07-30 12:10:00,
2013-07-30 07:15:00,63.0,61.5,30.16,NE,41,2.0,3.0,95,0.05,,,0.20,Wunderground v.1.15,2013-07-30 12:15:00,
2013-07-30 07:20:00,63.0,61.5,30.16,ENE,72,3.0,3.0,95,0.05,,,0.20,Wunderground v.1.15,2013-07-30 12:20:00,
2013-07-30 07:25:00,63.0,61.5,30.16,ENE,67,3.0,4.0,95,0.06,,,0.21,Wunderground v.1.15,2013-07-30 12:25:00,
2013-07-30 07:30:00,63.0,61.8,30.16,ENE,63,3.0,3.0,96,0.10,,,0.22,Wunderground v.1.15,2013-07-30 12:30:00,
2013-07-30 07:35:00,63.0,61.8,30.15,ENE,61,3.0,3.0,96,0.09,,,0.22,Wunderground v.1.15,2013-07-30 12:35:00,
2013-07-30 07:40:00,63.0,61.8,30.15,ENE,63,3.0,3.0,96,0.06,,,0.23,Wunderground v.1.15,2013-07-30 12:40:00,
2013-07-30 07:45:00,63.0,61.8,30.15,ENE,58,3.0,3.0,96,0.06,,,0.23,Wunderground v.1.15,2013-07-30 12:45:00,
2013-07-30 07:50:00,63.0,61.8,30.15,ENE,68,3.0,4.0,96,0.05,,,0.25,Wunderground v.1.15,2013-07-30 12:50:00,
2013-07-30 07:55:00,63.0,61.8,30.16,ENE,71,4.0,4.0,96,0.05,,,0.25,Wunderground v.1.15,2013-07-30 12:55:00,
2013-07-30 08:00:00,63.1,61.9,30.16,ENE,75,4.0,4.0,96,0.05,,,0.25,Wunderground v.1.15,2013-07-30 13:00:00,
2013-07-30 08:05:00,63.1,61.9,30.16,East,84,3.0,4.0,96,0.04,,,0.25,Wunderground v.1.15,2013-07-30 13:05:00,
2013-07-30 08:15:00,63.2,62.0,30.16,ESE,112,2.0,2.0,96,0.24,,,0.27,Wunderground v.1.15,2013-07-30 13:15:00,
2013-07-30 08:20:00,63.2,62.0,30.16,East,81,2.0,5.0,96,0.33,,,0.31,Wunderground v.1.15,2013-07-30 13:20:00,
2013-07-30 08:25:00,63.2,62.0,30.16,ENE,63,3.0,5.0,96,0.14,,,0.32,Wunderground v.1.15,2013-07-30 13:25:00,
2013-07-30 08:30:00,63.2,62.0,30.16,ENE,76,4.0,5.0,96,0.12,,,0.33,Wunderground v.1.15,2013-07-30 13:30:00,
2013-07-30 08:35:00,63.3,62.1,30.16,East,98,4.0,5.0,96,0.14,,,0.35,Wunderground v.1.15,2013-07-30 13:35:00,
2013-07-30 08:40:00,63.3,62.1,30.16,East,82,3.0,5.0,96,0.32,,,0.38,Wunderground v.1.15,2013-07-30 13:40:00,
2013-07-30 08:45:00,63.3,62.1,30.16,East,92,2.0,5.0,96,0.14,,,0.40,Wunderground v.1.15,2013-07-30 13:45:00,
2013-07-30 08:50:00,63.3,62.1,30.16,East,93,2.0,3.0,96,0.44,,,0.43,Wunderground v.1.15,2013-07-30 13:50:00,
2013-07-30 08:55:00,63.3,62.1,30.16,East,97,2.0,3.0,96,0.25,,,0.46,Wunderground v.1.15,2013-07-30 13:55:00,
2013-07-30 09:00:00,63.4,62.2,30.16,East,79,2.0,4.0,96,0.26,,,0.48,Wunderground v.1.15,2013-07-30 14:00:00,
2013-07-30 09:05:00,63.3,62.1,30.16,East,95,2.0,4.0,96,0.68,,,0.52,Wunderground v.1.15,2013-07-30 14:05:00,
2013-07-30 09:10:00,63.3,62.1,30.16,East,99,2.0,2.0,96,0.56,,,0.57,Wunderground v.1.15,2013-07-30 14:10:00,
2013-07-30 09:15:00,63.3,62.1,30.16,ESE,113,2.0,2.0,96,0.59,,,0.63,Wunderground v.1.15,2013-07-30 14:15:00,
2013-07-30 09:20:00,63.2,62.0,30.16,ESE,110,2.0,2.0,96,0.37,,,0.67,Wunderground v.1.15,2013-07-30 14:20:00,
2013-07-30 09:25:00,63.3,62.1,30.16,ESE,107,2.0,3.0,96,0.15,,,0.70,Wunderground v.1.15,2013-07-30 14:25:00,
2013-07-30 09:30:00,63.3,62.1,30.15,ESE,103,2.0,3.0,96,0.08,,,0.71,Wunderground v.1.15,2013-07-30 14:30:00,
2013-07-30 09:35:00,63.3,62.1,30.15,ESE,115,3.0,3.0,96,0.08,,,0.71,Wunderground v.1.15,2013-07-30 14:35:00,
2013-07-30 09:40:00,63.4,62.5,30.15,ESE,107,3.0,3.0,97,0.05,,,0.71,Wunderground v.1.15,2013-07-30 14:40:00,
2013-07-30 09:45:00,63.5,62.6,30.15,East,100,2.0,3.0,97,0.04,,,0.71,Wunderground v.1.15,2013-07-30 14:45:00,
2013-07-30 09:50:00,63.5,62.6,30.15,East,92,3.0,3.0,97,0.00,,,0.72,Wunderground v.1.15,2013-07-30 14:50:00,
2013-07-30 09:55:00,63.6,62.7,30.14,East,92,3.0,3.0,97,0.00,,,0.72,Wunderground v.1.15,2013-07-30 14:55:00,
2013-07-30 10:00:00,63.7,62.8,30.14,East,89,3.0,4.0,97,0.00,,,0.72,Wunderground v.1.15,2013-07-30 15:00:00,
2013-07-30 10:05:00,63.8,62.9,30.14,East,101,3.0,4.0,97,0.00,,,0.72,Wunderground v.1.15,2013-07-30 15:05:00,
2013-07-30 10:10:00,63.9,63.0,30.14,East,100,3.0,3.0,97,0.00,,,0.72,Wunderground v.1.15,2013-07-30 15:10:00,
2013-07-30 10:15:00,63.9,63.0,30.14,East,98,3.0,4.0,97,0.00,,,0.72,Wunderground v.1.15,2013-07-30 15:15:00,
2013-07-30 10:20:00,64.0,63.1,30.14,East,101,3.0,3.0,97,0.00,,,0.72,Wunderground v.1.15,2013-07-30 15:20:00,
2013-07-30 10:25:00,64.0,63.1,30.14,ESE,110,3.0,4.0,97,0.00,,,0.72,Wunderground v.1.15,2013-07-30 15:25:00,
2013-07-30 10:30:00,64.0,63.1,30.14,ESE,110,3.0,3.0,97,0.00,,,0.72,Wunderground v.1.15,2013-07-30 15:30:00,
2013-07-30 10:35:00,64.0,63.1,30.14,East,94,4.0,5.0,97,0.00,,,0.72,Wunderground v.1.15,2013-07-30 15:35:00,
2013-07-30 10:40:00,64.1,63.2,30.13,ESE,110,4.0,4.0,97,0.00,,,0.72,Wunderground v.1.15,2013-07-30 15:40:00,
2013-07-30 10:45:00,64.1,63.2,30.13,ESE,104,4.0,4.0,97,0.00,,,0.72,Wunderground v.1.15,2013-07-30 15:45:00,
2013-07-30 10:50:00,64.2,63.3,30.13,East,101,4.0,4.0,97,0.00,,,0.73,Wunderground v.1.15,2013-07-30 15:50:00,
2013-07-30 10:55:00,64.3,63.4,30.13,ESE,106,4.0,4.0,97,0.00,,,0.73,Wunderground v.1.15,2013-07-30 15:55:00,
2013-07-30 11:00:00,64.4,63.5,30.13,ESE,107,4.0,4.0,97,0.00,,,0.73,Wunderground v.1.15,2013-07-30 16:00:00,
2013-07-30 11:10:00,64.6,63.7,30.13,East,92,4.0,5.0,97,0.00,,,0.73,Wunderground v.1.15,2013-07-30 16:10:00,
2013-07-30 11:15:00,64.6,63.7,30.13,East,101,4.0,5.0,97,0.00,,,0.73,Wunderground v.1.15,2013-07-30 16:15:00,
2013-07-30 11:20:00,64.6,63.7,30.13,East,98,4.0,4.0,97,0.00,,,0.73,Wunderground v.1.15,2013-07-30 16:20:00,
2013-07-30 11:25:00,64.6,63.7,30.13,ENE,78,4.0,5.0,97,0.00,,,0.73,Wunderground v.1.15,2013-07-30 16:25:00,
2013-07-30 11:30:00,64.6,63.7,30.13,ESE,117,4.0,4.0,97,0.00,,,0.73,Wunderground v.1.15,2013-07-30 16:30:00,
2013-07-30 11:35:00,64.7,63.8,30.13,ESE,110,4.0,4.0,97,0.00,,,0.73,Wunderground v.1.15,2013-07-30 16:35:00,
2013-07-30 11:40:00,64.7,63.8,30.12,ESE,102,4.0,4.0,97,0.00,,,0.73,Wunderground v.1.15,2013-07-30 16:40:00,
2013-07-30 11:45:00,64.7,63.8,30.12,East,97,4.0,5.0,97,0.00,,,0.73,Wunderground v.1.15,2013-07-30 16:45:00,
2013-07-30 11:50:00,64.7,63.8,30.12,East,94,4.0,4.0,97,0.00,,,0.73,Wunderground v.1.15,2013-07-30 16:50:00,
2013-07-30 11:55:00,64.7,63.8,30.11,East,98,5.0,5.0,97,0.00,,,0.73,Wunderground v.1.15,2013-07-30 16:55:00,
2013-07-30 12:00:00,64.8,63.9,30.11,ESE,104,4.0,4.0,97,0.00,,,0.73,Wunderground v.1.15,2013-07-30 17:00:00,
2013-07-30 12:05:00,64.8,63.9,30.11,ESE,120,4.0,5.0,97,0.00,,,0.73,Wunderground v.1.15,2013-07-30 17:05:00,
2013-07-30 12:10:00,64.8,63.9,30.10,ESE,103,4.0,4.0,97,0.00,,,0.73,Wunderground v.1.15,2013-07-30 17:10:00,
2013-07-30 12:15:00,64.8,63.9,30.10,East,96,4.0,4.0,97,0.00,,,0.73,Wunderground v.1.15,2013-07-30 17:15:00,
2013-07-30 12:20:00,64.8,63.9,30.10,ESE,113,4.0,4.0,97,0.00,,,0.73,Wunderground v.1.15,2013-07-30 17:20:00,
2013-07-30 12:25:00,64.9,64.0,30.10,East,101,4.0,4.0,97,0.00,,,0.73,Wunderground v.1.15,2013-07-30 17:25:00,
2013-07-30 12:30:00,64.9,64.0,30.09,ESE,115,4.0,4.0,97,0.00,,,0.73,Wunderground v.1.15,2013-07-30 17:30:00,
2013-07-30 12:35:00,64.9,64.0,30.09,ESE,113,4.0,4.0,97,0.00,,,0.73,Wunderground v.1.15,2013-07-30 17:35:00,
2013-07-30 12:40:00,65.1,64.2,30.09,ESE,105,4.0,4.0,97,0.00,,,0.73,Wunderground v.1.15,2013-07-30 17:40:00,
2013-07-30 12:50:00,65.2,64.3,30.10,SE,138,3.0,3.0,97,0.00,,,0.75,Wunderground v.1.15,2013-07-30 17:50:00,
2013-07-30 12:55:00,65.3,64.4,30.10,East,101,2.0,3.0,97,0.00,,,0.75,Wunderground v.1.15,2013-07-30 17:55:00,
2013-07-30 13:00:00,65.4,64.5,30.10,ESE,105,2.0,2.0,97,0.00,,,0.75,Wunderground v.1.15,2013-07-30 18:00:00,
2013-07-30 13:05:00,65.6,64.7,30.10,East,98,2.0,2.0,97,0.00,,,0.75,Wunderground v.1.15,2013-07-30 18:05:00,
2013-07-30 13:10:00,65.7,64.8,30.10,ESE,117,2.0,2.0,97,0.00,,,0.75,Wunderground v.1.15,2013-07-30 18:10:00,
2013-07-30 13:15:00,65.7,64.8,30.10,ESE,110,3.0,3.0,97,0.00,,,0.75,Wunderground v.1.15,2013-07-30 18:15:00,
2013-07-30 13:20:00,65.8,64.9,30.10,ESE,120,3.0,3.0,97,0.00,,,0.75,Wunderground v.1.15,2013-07-30 18:20:00,
2013-07-30 13:25:00,65.8,64.9,30.10,SE,129,3.0,3.0,97,0.00,,,0.75,Wunderground v.1.15,2013-07-30 18:25:00,
2013-07-30 13:30:00,65.9,65.0,30.09,ESE,108,3.0,3.0,97,0.00,,,0.75,Wunderground v.1.15,2013-07-30 18:30:00,
2013-07-30 13:40:00,66.2,65.3,30.09,East,98,2.0,2.0,97,0.00,,,0.75,Wunderground v.1.15,2013-07-30 18:40:00,
2013-07-30 13:45:00,66.3,65.4,30.09,ESE,113,3.0,3.0,97,0.00,,,0.75,Wunderground v.1.15,2013-07-30 18:45:00,
2013-07-30 13:50:00,66.4,65.5,30.09,East,96,3.0,3.0,97,0.00,,,0.75,Wunderground v.1.15,2013-07-30 18:50:00,
2013-07-30 13:55:00,66.4,65.5,30.09,ESE,117,3.0,3.0,97,0.00,,,0.75,Wunderground v.1.15,2013-07-30 18:55:00,
2013-07-30 14:00:00,66.6,65.7,30.08,ESE,104,3.0,4.0,97,0.00,,,0.75,Wunderground v.1.15,2013-07-30 19:00:00,
2013-07-30 14:05:00,66.6,65.7,30.08,SE,134,3.0,4.0,97,0.00,,,0.75,Wunderground v.1.15,2013-07-30 19:05:00,
2013-07-30 14:10:00,66.7,65.8,30.08,East,98,3.0,4.0,97,0.00,,,0.75,Wunderground v.1.15,2013-07-30 19:10:00,
2013-07-30 14:15:00,66.7,65.8,30.08,ESE,120,3.0,4.0,97,0.00,,,0.75,Wunderground v.1.15,2013-07-30 19:15:00,
2013-07-30 14:20:00,66.7,65.8,30.08,SE,127,3.0,4.0,97,0.00,,,0.75,Wunderground v.1.15,2013-07-30 19:20:00,
2013-07-30 14:25:00,66.9,66.0,30.08,ESE,113,3.0,4.0,97,0.00,,,0.75,Wunderground v.1.15,2013-07-30 19:25:00,
2013-07-30 14:30:00,66.9,66.0,30.07,East,89,3.0,3.0,97,0.00,,,0.75,Wunderground v.1.15,2013-07-30 19:30:00,
2013-07-30 14:35:00,66.9,66.0,30.07,East,101,3.0,5.0,97,0.00,,,0.75,Wunderground v.1.15,2013-07-30 19:35:00,
2013-07-30 14:40:00,67.0,66.1,30.07,SE,131,3.0,3.0,97,0.00,,,0.75,Wunderground v.1.15,2013-07-30 19:40:00,
2013-07-30 14:45:00,67.1,66.2,30.07,ESE,111,3.0,4.0,97,0.00,,,0.75,Wunderground v.1.15,2013-07-30 19:45:00,
2013-07-30 14:50:00,67.1,66.2,30.07,ESE,108,3.0,3.0,97,0.00,,,0.75,Wunderground v.1.15,2013-07-30 19:50:00,
2013-07-30 14:55:00,67.3,66.4,30.07,ESE,110,3.0,5.0,97,0.00,,,0.75,Wunderground v.1.15,2013-07-30 19:55:00,
2013-07-30 15:00:00,67.4,66.5,30.07,ESE,117,3.0,3.0,97,0.00,,,0.75,Wunderground v.1.15,2013-07-30 20:00:00,
2013-07-30 15:05:00,67.4,66.5,30.06,ESE,110,3.0,5.0,97,0.00,,,0.75,Wunderground v.1.15,2013-07-30 20:05:00,
2013-07-30 15:10:00,67.5,66.6,30.06,SE,130,3.0,6.0,97,0.00,,,0.75,Wunderground v.1.15,2013-07-30 20:10:00,
2013-07-30 15:15:00,67.5,66.6,30.06,SE,128,4.0,6.0,97,0.00,,,0.75,Wunderground v.1.15,2013-07-30 20:15:00,
2013-07-30 15:20:00,67.6,66.7,30.06,ESE,108,3.0,3.0,97,0.00,,,0.75,Wunderground v.1.15,2013-07-30 20:20:00,
2013-07-30 15:25:00,67.6,66.7,30.06,ESE,115,3.0,6.0,97,0.00,,,0.75,Wunderground v.1.15,2013-07-30 20:25:00,
2013-07-30 15:30:00,67.6,66.7,30.06,SE,129,4.0,4.0,97,0.00,,,0.75,Wunderground v.1.15,2013-07-30 20:30:00,
2013-07-30 15:35:00,67.6,66.7,30.06,ESE,105,4.0,4.0,97,0.00,,,0.75,Wunderground v.1.15,2013-07-30 20:35:00,
2013-07-30 15:40:00,67.7,66.8,30.06,ESE,113,3.0,3.0,97,0.00,,,0.75,Wunderground v.1.15,2013-07-30 20:40:00,
2013-07-30 15:45:00,67.7,66.8,30.06,SE,132,4.0,4.0,97,0.00,,,0.75,Wunderground v.1.15,2013-07-30 20:45:00,
2013-07-30 15:50:00,67.8,66.9,30.06,ESE,107,4.0,4.0,97,0.00,,,0.75,Wunderground v.1.15,2013-07-30 20:50:00,
2013-07-30 15:55:00,67.9,67.0,30.06,ESE,117,4.0,4.0,97,0.00,,,0.75,Wunderground v.1.15,2013-07-30 20:55:00,
2013-07-30 16:00:00,68.0,67.1,30.06,SE,141,4.0,5.0,97,0.00,,,0.75,Wunderground v.1.15,2013-07-30 21:00:00,
2013-07-30 16:05:00,68.0,67.1,30.06,ESE,110,3.0,5.0,97,0.00,,,0.75,Wunderground v.1.15,2013-07-30 21:05:00,
2013-07-30 16:10:00,68.0,67.1,30.06,ESE,110,3.0,4.0,97,0.00,,,0.75,Wunderground v.1.15,2013-07-30 21:10:00,
2013-07-30 16:15:00,68.0,67.1,30.06,ESE,113,3.0,4.0,97,0.00,,,0.75,Wunderground v.1.15,2013-07-30 21:15:00,
2013-07-30 16:20:00,68.1,67.2,30.06,ESE,110,3.0,3.0,97,0.00,,,0.75,Wunderground v.1.15,2013-07-30 21:20:00,
2013-07-30 16:25:00,68.1,67.2,30.06,ESE,107,3.0,3.0,97,0.00,,,0.75,Wunderground v.1.15,2013-07-30 21:25:00,
2013-07-30 16:30:00,68.2,67.3,30.06,ESE,105,3.0,4.0,97,0.00,,,0.75,Wunderground v.1.15,2013-07-30 21:30:00,
2013-07-30 16:35:00,68.2,67.3,30.06,ESE,118,3.0,4.0,97,0.00,,,0.75,Wunderground v.1.15,2013-07-30 21:35:00,
2013-07-30 16:40:00,68.2,67.3,30.06,ESE,113,3.0,3.0,97,0.00,,,0.75,Wunderground v.1.15,2013-07-30 21:40:00,
2013-07-30 16:45:00,68.2,67.3,30.06,ESE,117,3.0,3.0,97,0.00,,,0.75,Wunderground v.1.15,2013-07-30 21:45:00,
2013-07-30 16:50:00,68.3,67.4,30.06,ESE,104,3.0,3.0,97,0.00,,,0.75,Wunderground v.1.15,2013-07-30 21:50:00,
2013-07-30 16:55:00,68.3,67.4,30.06,East,98,3.0,3.0,97,0.00,,,0.75,Wunderground v.1.15,2013-07-30 21:55:00,
2013-07-30 17:00:00,68.4,67.5,30.06,ESE,110,3.0,3.0,97,0.00,,,0.75,Wunderground v.1.15,2013-07-30 22:00:00,
2013-07-30 17:05:00,68.3,67.4,30.06,ESE,110,3.0,3.0,97,0.00,,,0.75,Wunderground v.1.15,2013-07-30 22:05:00,
2013-07-30 17:10:00,68.4,67.5,30.06,SE,132,3.0,3.0,97,0.00,,,0.75,Wunderground v.1.15,2013-07-30 22:10:00,
2013-07-30 17:15:00,68.4,67.5,30.06,SE,124,3.0,4.0,97,0.00,,,0.75,Wunderground v.1.15,2013-07-30 22:15:00,
2013-07-30 17:20:00,68.5,67.6,30.06,ESE,121,3.0,3.0,97,0.00,,,0.75,Wunderground v.1.15,2013-07-30 22:20:00,
2013-07-30 17:25:00,68.6,67.7,30.06,ESE,112,3.0,3.0,97,0.00,,,0.75,Wunderground v.1.15,2013-07-30 22:25:00,
2013-07-30 17:30:00,68.6,67.7,30.06,ESE,120,3.0,3.0,97,0.00,,,0.75,Wunderground v.1.15,2013-07-30 22:30:00,
2013-07-30 17:35:00,68.6,67.7,30.06,ESE,121,2.0,3.0,97,0.00,,,0.75,Wunderground v.1.15,2013-07-30 22:35:00,
2013-07-30 17:40:00,68.6,67.7,30.06,ESE,110,2.0,3.0,97,0.00,,,0.75,Wunderground v.1.15,2013-07-30 22:40:00,
2013-07-30 17:45:00,68.6,67.7,30.06,SE,127,2.0,3.0,97,0.00,,,0.75,Wunderground v.1.15,2013-07-30 22:45:00,
2013-07-30 17:55:00,68.7,67.8,30.06,ESE,108,2.0,3.0,97,0.00,,,0.75,Wunderground v.1.15,2013-07-30 22:55:00,
2013-07-30 18:00:00,68.7,67.8,30.06,ESE,104,2.0,2.0,97,0.00,,,0.75,Wunderground v.1.15,2013-07-30 23:00:00,
2013-07-30 18:05:00,68.7,67.8,30.06,ESE,114,2.0,2.0,97,0.00,,,0.75,Wunderground v.1.15,2013-07-30 23:05:00,
2013-07-30 18:10:00,68.7,67.8,30.06,ESE,117,2.0,2.0,97,0.00,,,0.75,Wunderground v.1.15,2013-07-30 23:10:00,
2013-07-30 18:15:00,68.7,67.8,30.06,ESE,118,2.0,2.0,97,0.00,,,0.75,Wunderground v.1.15,2013-07-30 23:15:00,
2013-07-30 18:20:00,68.7,67.8,30.06,ESE,117,2.0,2.0,97,0.00,,,0.75,Wunderground v.1.15,2013-07-30 23:20:00,
2013-07-30 18:25:00,68.7,67.8,30.06,ESE,112,2.0,2.0,97,0.00,,,0.75,Wunderground v.1.15,2013-07-30 23:25:00,
2013-07-30 18:30:00,68.6,67.7,30.06,ESE,105,2.0,2.0,97,0.00,,,0.75,Wunderground v.1.15,2013-07-30 23:30:00,
2013-07-30 18:35:00,68.6,67.7,30.06,ESE,109,2.0,2.0,97,0.00,,,0.75,Wunderground v.1.15,2013-07-30 23:35:00,
2013-07-30 18:40:00,68.6,67.7,30.06,ESE,117,2.0,2.0,97,0.00,,,0.75,Wunderground v.1.15,2013-07-30 23:40:00,
2013-07-30 18:45:00,68.5,67.6,30.06,SE,124,2.0,3.0,97,0.00,,,0.75,Wunderground v.1.15,2013-07-30 23:45:00,
2013-07-30 18:50:00,68.5,67.6,30.06,ESE,117,3.0,3.0,97,0.00,,,0.75,Wunderground v.1.15,2013-07-30 23:50:00,
2013-07-30 18:55:00,68.5,67.6,30.06,SE,138,2.0,3.0,97,0.00,,,0.75,Wunderground v.1.15,2013-07-30 23:55:00,
2013-07-30 19:00:00,68.5,67.6,30.06,SE,129,2.0,2.0,97,0.00,,,0.75,Wunderground v.1.15,2013-07-31 00:00:00,
2013-07-30 19:10:00,68.5,67.6,30.06,SE,132,2.0,2.0,97,0.00,,,0.75,Wunderground v.1.15,2013-07-31 00:10:00,
2013-07-30 19:15:00,68.4,67.5,30.06,SE,132,1.0,4.0,97,0.00,,,0.75,Wunderground v.1.15,2013-07-31 00:15:00,
2013-07-30 19:20:00,68.4,67.5,30.06,SE,127,2.0,2.0,97,0.00,,,0.75,Wunderground v.1.15,2013-07-31 00:20:00,
2013-07-30 19:25:00,68.4,67.5,30.06,ESE,116,2.0,2.0,97,0.00,,,0.75,Wunderground v.1.15,2013-07-31 00:25:00,
2013-07-30 19:30:00,68.3,67.4,30.06,ESE,122,2.0,2.0,97,0.00,,,0.75,Wunderground v.1.15,2013-07-31 00:30:00,
2013-07-30 19:35:00,68.3,67.4,30.06,ESE,113,2.0,2.0,97,0.00,,,0.75,Wunderground v.1.15,2013-07-31 00:35:00,
2013-07-30 19:40:00,68.3,67.4,30.06,ESE,122,2.0,3.0,97,0.00,,,0.75,Wunderground v.1.15,2013-07-31 00:40:00,
2013-07-30 19:45:00,68.2,67.3,30.06,ESE,113,2.0,3.0,97,0.00,,,0.75,Wunderground v.1.15,2013-07-31 00:45:00,
2013-07-30 19:50:00,68.2,67.3,30.06,SE,124,2.0,3.0,97,0.00,,,0.75,Wunderground v.1.15,2013-07-31 00:50:00,
2013-07-30 19:55:00,68.2,67.3,30.06,ESE,112,2.0,4.0,97,0.00,,,0.75,Wunderground v.1.15,2013-07-31 00:55:00,
2013-07-30 20:00:00,68.2,67.3,30.05,ESE,118,3.0,3.0,97,0.00,,,0.75,Wunderground v.1.15,2013-07-31 01:00:00,
2013-07-30 20:05:00,68.1,67.2,30.06,SE,124,3.0,3.0,97,0.00,,,0.75,Wunderground v.1.15,2013-07-31 01:05:00,
2013-07-30 20:10:00,68.1,67.2,30.06,ESE,120,3.0,3.0,97,0.00,,,0.75,Wunderground v.1.15,2013-07-31 01:10:00,
2013-07-30 20:15:00,68.0,67.1,30.06,ESE,107,3.0,3.0,97,0.00,,,0.75,Wunderground v.1.15,2013-07-31 01:15:00,
2013-07-30 20:20:00,68.0,67.1,30.06,ESE,117,3.0,3.0,97,0.00,,,0.75,Wunderground v.1.15,2013-07-31 01:20:00,
2013-07-30 20:25:00,67.9,67.0,30.06,ESE,121,2.0,3.0,97,0.00,,,0.75,Wunderground v.1.15,2013-07-31 01:25:00,
2013-07-30 20:30:00,67.9,67.0,30.06,ESE,105,2.0,2.0,97,0.00,,,0.75,Wunderground v.1.15,2013-07-31 01:30:00,
2013-07-30 20:35:00,67.9,67.0,30.06,ESE,114,2.0,3.0,97,0.00,,,0.75,Wunderground v.1.15,2013-07-31 01:35:00,
2013-07-30 20:40:00,67.9,67.0,30.06,ESE,115,2.0,3.0,97,0.00,,,0.75,Wunderground v.1.15,2013-07-31 01:40:00,
2013-07-30 20:45:00,67.9,67.0,30.06,SE,130,2.0,3.0,97,0.00,,,0.75,Wunderground v.1.15,2013-07-31 01:45:00,
2013-07-30 20:50:00,67.9,67.0,30.06,ESE,117,2.0,2.0,97,0.00,,,0.75,Wunderground v.1.15,2013-07-31 01:50:00,
2013-07-30 20:55:00,67.9,67.0,30.06,ESE,110,2.0,2.0,97,0.00,,,0.75,Wunderground v.1.15,2013-07-31 01:55:00,
2013-07-30 21:00:00,67.8,66.9,30.06,ESE,110,2.0,2.0,97,0.00,,,0.75,Wunderground v.1.15,2013-07-31 02:00:00,
2013-07-30 21:05:00,67.8,66.9,30.06,ESE,110,2.0,2.0,97,0.00,,,0.75,Wunderground v.1.15,2013-07-31 02:05:00,
2013-07-30 21:10:00,67.8,66.9,30.06,ESE,117,2.0,2.0,97,0.00,,,0.75,Wunderground v.1.15,2013-07-31 02:10:00,
2013-07-30 21:15:00,67.7,66.8,30.06,ESE,110,2.0,2.0,97,0.00,,,0.75,Wunderground v.1.15,2013-07-31 02:15:00,
2013-07-30 21:20:00,67.7,66.8,30.07,ESE,110,2.0,2.0,97,0.00,,,0.75,Wunderground v.1.15,2013-07-31 02:20:00,
2013-07-30 21:25:00,67.7,66.8,30.06,ESE,117,2.0,2.0,97,0.00,,,0.75,Wunderground v.1.15,2013-07-31 02:25:00,
2013-07-30 21:30:00,67.7,66.8,30.07,ESE,115,2.0,2.0,97,0.00,,,0.75,Wunderground v.1.15,2013-07-31 02:30:00,
2013-07-30 21:35:00,67.7,66.8,30.06,ESE,122,2.0,2.0,97,0.00,,,0.75,Wunderground v.1.15,2013-07-31 02:35:00,
2013-07-30 21:40:00,67.7,66.8,30.06,SE,134,2.0,2.0,97,0.00,,,0.75,Wunderground v.1.15,2013-07-31 02:40:00,
2013-07-30 21:45:00,67.8,66.9,30.06,ESE,116,2.0,2.0,97,0.00,,,0.75,Wunderground v.1.15,2013-07-31 02:45:00,
2013-07-30 21:50:00,67.7,66.8,30.07,ESE,102,1.0,1.0,97,0.00,,,0.75,Wunderground v.1.15,2013-07-31 02:50:00,
2013-07-30 22:00:00,67.7,66.8,30.07,ESE,108,1.0,1.0,97,0.00,,,0.75,Wunderground v.1.15,2013-07-31 03:00:00,
2013-07-30 22:10:00,67.7,66.8,30.07,East,96,1.0,2.0,97,0.00,,,0.75,Wunderground v.1.15,2013-07-31 03:10:00,
2013-07-30 22:15:00,67.7,66.8,30.07,ESE,114,1.0,2.0,97,0.00,,,0.75,Wunderground v.1.15,2013-07-31 03:15:00,
2013-07-30 22:20:00,67.7,66.8,30.07,ESE,114,1.0,2.0,97,0.00,,,0.75,Wunderground v.1.15,2013-07-31 03:20:00,
2013-07-30 22:25:00,67.7,66.8,30.07,ESE,117,1.0,2.0,97,0.00,,,0.75,Wunderground v.1.15,2013-07-31 03:25:00,
2013-07-30 22:30:00,67.7,66.8,30.07,ESE,120,1.0,1.0,97,0.00,,,0.75,Wunderground v.1.15,2013-07-31 03:30:00,
2013-07-30 22:35:00,67.7,66.8,30.07,SE,124,1.0,2.0,97,0.00,,,0.75,Wunderground v.1.15,2013-07-31 03:35:00,
2013-07-30 22:40:00,67.7,66.8,30.07,SE,127,1.0,1.0,97,0.00,,,0.75,Wunderground v.1.15,2013-07-31 03:40:00,
2013-07-30 22:45:00,67.7,66.8,30.07,SE,127,1.0,1.0,97,0.00,,,0.75,Wunderground v.1.15,2013-07-31 03:45:00,
2013-07-30 22:50:00,67.7,66.8,30.07,SE,129,1.0,1.0,97,0.00,,,0.75,Wunderground v.1.15,2013-07-31 03:50:00,
2013-07-30 22:55:00,67.7,66.8,30.07,SE,129,1.0,1.0,97,0.00,,,0.75,Wunderground v.1.15,2013-07-31 03:55:00,
2013-07-30 23:00:00,67.7,66.8,30.07,SSE,148,1.0,1.0,97,0.00,,,0.75,Wunderground v.1.15,2013-07-31 04:00:00,
2013-07-30 23:05:00,67.7,66.8,30.07,SE,144,1.0,1.0,97,0.00,,,0.75,Wunderground v.1.15,2013-07-31 04:05:00,
2013-07-30 23:10:00,67.7,66.8,30.07,SE,124,1.0,1.0,97,0.00,,,0.75,Wunderground v.1.15,2013-07-31 04:10:00,
2013-07-30 23:15:00,67.8,66.9,30.07,SE,138,1.0,2.0,97,0.00,,,0.75,Wunderground v.1.15,2013-07-31 04:15:00,
2013-07-30 23:20:00,67.8,66.9,30.07,SE,141,1.0,1.0,97,0.00,,,0.75,Wunderground v.1.15,2013-07-31 04:20:00,
2013-07-30 23:25:00,67.8,66.9,30.07,SE,132,1.0,1.0,97,0.00,,,0.75,Wunderground v.1.15,2013-07-31 04:25:00,
2013-07-30 23:35:00,67.9,67.0,30.07,ESE,122,1.0,1.0,97,0.00,,,0.75,Wunderground v.1.15,2013-07-31 04:35:00,
2013-07-30 23:40:00,67.9,67.0,30.07,ESE,114,1.0,1.0,97,0.00,,,0.75,Wunderground v.1.15,2013-07-31 04:40:00,
2013-07-30 23:45:00,67.9,67.0,30.07,SE,138,1.0,2.0,97,0.00,,,0.75,Wunderground v.1.15,2013-07-31 04:45:00,
2013-07-30 23:50:00,67.9,67.0,30.07,ESE,115,1.0,1.0,97,0.00,,,0.75,Wunderground v.1.15,2013-07-31 04:50:00,
2013-07-30 23:55:00,67.9,67.0,30.07,SE,130,1.0,1.0,97,0.00,,,0.75,Wunderground v.1.15,2013-07-31 04:55:00,